Back to catalog

COSMOS 2114

AliveMilitaryPO
NORAD 21028·PAYLOAD·🇷🇺 Russia

Launched Dec 22, 1990 from Plesetsk Cosmodrome

Loading…

Next Passes (next 24 hours)

TLE

FreshSource: Space-Track

Epoch: Sep 14, 2026, 04:22 UTC

1 21028U 90114A   26257.18199187  .00000027  00000-0  92541-4 0  9998
2 21028  82.5818 176.8853 0006323  87.1180  76.8405 12.62805111646625

Track COSMOS 2114 in real time with AllMySat

Download on the App Store